Location: Kalberh�ni
(46.4610°N, 7.2453°E)
Time: 02:43:56
(UTC+00:00)

Cosmos 1953 Rocket - Pass Details

Date: 20 June 2021
Orbit: 605 x 634 km, 82.5° (Epoch: 25 July)

Event Time Altitude Azimuth Distance (km) Brightness Sun altitude
Exits shadow 23:50:40 41° 141° (SE) 899 4.0 -20.0°
Maximum altitude 23:51:46 53° 94° (E) 765 3.9 -20.0°
Drops below altitude 10° 23:56:04 10° 18° (NNE) 2,000 7.3 -19.9°
Sets 23:58:21 0° 14° (NNE) 2,916 8.6 -19.9°
